| time (UTC) | temp F | wind direction | speed knots | gust knots | rain 1hr in | rain 24hr in | rain mn in | humidity % | barometer mb |
| 20260506050957 | 64 | 316 | 1.7 | 5.2 | 0.00 | 0.00 | 0.00 | 79 | 1009.2 |
| 20260506050458 | 64 | 312 | 0.9 | 6.1 | 0.00 | 0.00 | 0.00 | 78 | 1009.1 |
| 20260506044439 | 65 | 303 | 0.9 | 4.3 | 0.00 | 0.00 | 0.00 | 78 | 1009.1 |
| 20260506043933 | 65 | 266 | 0.0 | 4.3 | 0.00 | 0.00 | 0.00 | 78 | 1009.1 |
| 20260506043426 | 65 | 232 | 0.9 | 7.0 | 0.00 | 0.00 | 0.00 | 78 | 1009.0 |
| 20260506043235 | 65 | 355 | 0.9 | 7.0 | 0.00 | 0.00 | 0.00 | 78 | 1009.0 |
| 20260506042418 | 65 | 347 | 0.9 | 5.2 | 0.00 | 0.00 | 0.00 | 78 | 1009.1 |
| 20260506041909 | 66 | 273 | 0.9 | 5.2 | 0.00 | 0.00 | 0.00 | 78 | 1008.9 |
| 20260506041401 | 66 | 293 | 1.7 | 5.2 | 0.00 | 0.00 | 0.00 | 77 | 1008.6 |
| 20260506040856 | 67 | 314 | 0.9 | 6.1 | 0.00 | 0.00 | 0.00 | 77 | 1008.6 |
| 20260506040352 | 67 | 314 | 0.9 | 6.1 | 0.00 | 0.00 | 0.00 | 77 | 1008.6 |
| 20260506035842 | 67 | 326 | 0.9 | 3.5 | 0.00 | 0.00 | 0.00 | 77 | 1008.7 |
| 20260506035338 | 68 | 190 | 0.9 | 2.6 | 0.00 | 0.00 | 0.00 | 77 | 1008.6 |
| 20260506034832 | 68 | 54 | 0.9 | 4.3 | 0.00 | 0.00 | 0.00 | 77 | 1008.5 |
| 20260506034326 | 68 | 255 | 1.7 | 7.8 | 0.00 | 0.00 | 0.00 | 76 | 1008.3 |
| 20260506033823 | 69 | 8 | 1.7 | 7.8 | 0.00 | 0.00 | 0.00 | 76 | 1008.4 |
| 20260506033314 | 69 | 326 | 0.9 | 3.5 | 0.00 | 0.00 | 0.00 | 76 | 1008.2 |
| 20260506032809 | 70 | 308 | 0.9 | 6.1 | 0.00 | 0.00 | 0.00 | 76 | 1008.2 |
| 20260506032305 | 70 | 320 | 0.9 | 6.1 | 0.00 | 0.00 | 0.00 | 76 | 1008.1 |
| 20260506031756 | 70 | 323 | 0.9 | 6.1 | 0.00 | 0.00 | 0.00 | 75 | 1007.8 |
| 20260506031250 | 71 | 326 | 0.0 | 3.5 | 0.00 | 0.00 | 0.00 | 76 | 1007.8 |
| 20260506030745 | 71 | 330 | 0.9 | 3.5 | 0.00 | 0.00 | 0.00 | 75 | 1008.0 |
| 20260506030238 | 71 | 352 | 0.9 | 3.5 | 0.00 | 0.00 | 0.00 | 75 | 1007.9 |
| 20260506025733 | 71 | 323 | 0.9 | 5.2 | 0.00 | 0.00 | 0.00 | 75 | 1007.7 |
| 20260506025225 | 71 | 86 | 1.7 | 5.2 | 0.00 | 0.00 | 0.00 | 75 | 1007.6 |
| 20260506024719 | 72 | 44 | 0.9 | 4.3 | 0.00 | 0.00 | 0.00 | 75 | 1007.4 |
| 20260506024214 | 72 | 290 | 0.9 | 8.7 | 0.00 | 0.00 | 0.00 | 74 | 1007.1 |
| 20260506023709 | 73 | 286 | 0.9 | 8.7 | 0.00 | 0.00 | 0.00 | 74 | 1007.0 |
| 20260506023201 | 73 | 44 | 0.9 | 4.3 | 0.00 | 0.00 | 0.00 | 74 | 1006.8 |
| 20260506023009 | 74 | 324 | 0.9 | 4.3 | 0.00 | 0.00 | 0.00 | 74 | 1006.5 |
| 20260506022152 | 74 | 339 | 0.9 | 5.2 | 0.00 | 0.00 | 0.00 | 74 | 1006.4 |
| 20260506021644 | 74 | 275 | 0.9 | 5.2 | 0.00 | 0.00 | 0.00 | 73 | 1006.3 |
| 20260506021141 | 74 | 323 | 0.9 | 3.5 | 0.00 | 0.00 | 0.00 | 73 | 1006.0 |
| 20260506020641 | 74 | 330 | 0.0 | 3.5 | 0.00 | 0.00 | 0.00 | 72 | 1005.8 |
| 20260506020139 | 75 | 319 | 0.9 | 3.5 | 0.00 | 0.00 | 0.00 | 73 | 1006.2 |
| 20260506015637 | 75 | 317 | 0.0 | 3.5 | 0.00 | 0.00 | 0.00 | 73 | 1006.0 |
| 20260506015450 | 75 | 302 | 0.0 | 2.6 | 0.00 | 0.00 | 0.00 | 72 | 1006.0 |
| 20260506014634 | 75 | 325 | 0.0 | 3.5 | 0.00 | 0.00 | 0.00 | 72 | 1006.0 |
| 20260506014445 | 75 | 312 | 0.9 | 3.5 | 0.00 | 0.00 | 0.00 | 72 | 1005.7 |
| 20260506013943 | 75 | 278 | 0.0 | 3.5 | 0.00 | 0.00 | 0.00 | 72 | 1005.6 |
| 20260506013131 | 75 | 332 | 0.0 | 3.5 | 0.00 | 0.00 | 0.00 | 71 | 1005.6 |
| 20260506012950 | 75 | 281 | 0.0 | 2.6 | 0.00 | 0.00 | 0.00 | 71 | 1005.8 |
| 20260506012133 | 76 | 333 | 0.0 | 3.5 | 0.00 | 0.00 | 0.00 | 71 | 1005.9 |
| 20260506011630 | 76 | 336 | 0.9 | 3.5 | 0.00 | 0.00 | 0.00 | 70 | 1005.7 |
| 20260506011132 | 76 | 79 | 0.9 | 3.5 | 0.00 | 0.00 | 0.00 | 70 | 1005.4 |
| 20260506010630 | 76 | 316 | 0.0 | 1.7 | 0.00 | 0.00 | 0.00 | 71 | 1005.4 |
| 20260506010439 | 77 | 250 | 0.9 | 4.3 | 0.00 | 0.00 | 0.00 | 70 | 1005.4 |
| 20260506005940 | 77 | 280 | 0.9 | 5.2 | 0.00 | 0.00 | 0.00 | 69 | 1005.1 |
| 20260506005129 | 78 | 234 | 0.9 | 5.2 | 0.00 | 0.00 | 0.00 | 69 | 1005.4 |
| 20260506004631 | 78 | 300 | 0.0 | 3.5 | 0.00 | 0.00 | 0.00 | 69 | 1005.1 |
| 20260506004130 | 79 | 319 | 0.9 | 5.2 | 0.00 | 0.00 | 0.00 | 68 | 1004.9 |
| 20260506003947 | 79 | 260 | 0.9 | 5.2 | 0.00 | 0.00 | 0.00 | 67 | 1004.8 |
| 20260506003443 | 80 | 358 | 0.9 | 4.3 | 0.00 | 0.00 | 0.00 | 67 | 1004.7 |
| 20260506002629 | 80 | 326 | 0.9 | 4.3 | 0.00 | 0.00 | 0.00 | 66 | 1005.0 |
| 20260506002501 | 81 | 213 | 0.9 | 4.3 | 0.00 | 0.00 | 0.00 | 65 | 1005.0 |
| 20260506001625 | 82 | 218 | 0.9 | 4.3 | 0.00 | 0.00 | 0.00 | 65 | 1004.9 |
| 20260506001127 | 82 | 220 | 0.0 | 3.5 | 0.00 | 0.00 | 0.00 | 64 | 1004.9 |
| 20260506000627 | 83 | 257 | 0.9 | 4.3 | 0.00 | 0.00 | 0.00 | 64 | 1004.8 |
| 20260506000125 | 83 | 356 | 0.9 | 4.3 | 0.00 | 0.00 | 0.00 | 63 | 1004.3 |
| 20260505235623 | 84 | 311 | 0.9 | 5.2 | 0.00 | 0.00 | 0.00 | 62 | 1004.1 |
| 20260505235123 | 84 | 264 | 0.9 | 5.2 | 0.00 | 0.00 | 0.00 | 60 | 1004.1 |
| 20260505234621 | 85 | 41 | 0.9 | 4.3 | 0.00 | 0.00 | 0.00 | 58 | 1004.2 |
| 20260505234121 | 85 | 297 | 0.0 | 2.6 | 0.00 | 0.00 | 0.00 | 57 | 1004.0 |
| 20260505233622 | 85 | 323 | 0.0 | 1.7 | 0.00 | 0.00 | 0.00 | 58 | 1004.1 |
| 20260505233126 | 85 | 210 | 0.9 | 6.1 | 0.00 | 0.00 | 0.00 | 60 | 1004.1 |
| 20260505232619 | 85 | 233 | 0.9 | 6.1 | 0.00 | 0.00 | 0.00 | 63 | 1003.8 |
| 20260505232120 | 85 | 282 | 0.9 | 4.3 | 0.00 | 0.00 | 0.00 | 72 | 1003.5 |
| 20260505231619 | 85 | 167 | 0.9 | 4.3 | 0.00 | 0.00 | 0.00 | 72 | 1003.5 |
| 20260505231119 | 85 | 245 | 0.9 | 4.3 | 0.00 | 0.00 | 0.00 | 72 | 1003.4 |
| 20260505230618 | 85 | 20 | 0.9 | 4.3 | 0.00 | 0.00 | 0.00 | 72 | 1003.4 |
| 20260505230119 | 85 | 20 | 0.9 | 5.2 | 0.00 | 0.00 | 0.00 | 71 | 1003.3 |
| 20260505225934 | 86 | 272 | 1.7 | 7.0 | 0.00 | 0.00 | 0.00 | 71 | 1003.3 |
| 20260505225117 | 86 | 72 | 1.7 | 7.0 | 0.00 | 0.00 | 0.00 | 70 | 1003.4 |
| 20260505224615 | 87 | 84 | 0.9 | 6.1 | 0.00 | 0.00 | 0.00 | 69 | 1003.5 |
| 20260505224118 | 87 | 200 | 0.9 | 6.1 | 0.00 | 0.00 | 0.00 | 69 | 1003.3 |
| 20260505223617 | 88 | 62 | 0.9 | 6.1 | 0.00 | 0.00 | 0.00 | 66 | 1003.2 |
| 20260505223113 | 89 | 84 | 0.9 | 4.3 | 0.00 | 0.00 | 0.00 | 64 | 1003.1 |
| 20260505222614 | 89 | 70 | 0.9 | 4.3 | 0.00 | 0.00 | 0.00 | 64 | 1003.0 |
| 20260505222113 | 89 | 218 | 0.0 | 0.9 | 0.00 | 0.00 | 0.00 | 61 | 1003.0 |
| 20260505221615 | 89 | 281 | 0.0 | 2.6 | 0.00 | 0.00 | 0.00 | 60 | 1003.1 |
| 20260505221113 | 89 | 263 | 0.9 | 3.5 | 0.00 | 0.00 | 0.00 | 59 | 1003.1 |
| 20260505220608 | 89 | 238 | 0.9 | 3.5 | 0.00 | 0.00 | 0.00 | 61 | 1003.1 |
| 20260505215558 | 89 | 251 | 0.0 | 5.2 | 0.00 | 0.00 | 0.00 | 59 | 1003.2 |
| 20260505215109 | 89 | 221 | 0.0 | 2.6 | 0.00 | 0.00 | 0.00 | 59 | 1003.2 |
| 20260505214557 | 89 | 302 | 0.9 | 2.6 | 0.00 | 0.00 | 0.00 | 60 | 1003.2 |
| 20260505214058 | 89 | 279 | 0.0 | 3.5 | 0.00 | 0.00 | 0.00 | 60 | 1003.4 |
| 20260505213700 | 89 | 253 | 0.0 | 3.5 | 0.00 | 0.00 | 0.00 | 59 | 1003.4 |
| 20260505212555 | 89 | 269 | 0.0 | 2.6 | 0.00 | 0.00 | 0.00 | 60 | 1003.5 |
| 20260505212056 | 88 | 188 | 0.0 | 1.7 | 0.00 | 0.00 | 0.00 | 61 | 1003.5 |
| 20260505211555 | 88 | 227 | 0.9 | 3.5 | 0.00 | 0.00 | 0.00 | 60 | 1003.6 |
| 20260505211412 | 89 | 229 | 0.9 | 3.5 | 0.00 | 0.00 | 0.00 | 61 | 1003.6 |
| 20260505210700 | 89 | 230 | 0.9 | 3.5 | 0.00 | 0.00 | 0.00 | 61 | 1003.5 |
| 20260505205554 | 88 | 285 | 0.9 | 3.5 | 0.00 | 0.00 | 0.00 | 60 | 1003.7 |
| 20260505205052 | 88 | 252 | 0.9 | 5.2 | 0.00 | 0.00 | 0.00 | 61 | 1003.7 |
| 20260505204551 | 88 | 250 | 0.9 | 5.2 | 0.00 | 0.00 | 0.00 | 62 | 1003.9 |
| 20260505204400 | 88 | 252 | 0.9 | 2.6 | 0.00 | 0.00 | 0.00 | 62 | 1004.1 |
| 20260505203549 | 88 | 248 | 0.9 | 4.3 | 0.00 | 0.00 | 0.00 | 64 | 1004.0 |
| 20260505203049 | 87 | 257 | 0.9 | 4.3 | 0.00 | 0.00 | 0.00 | 63 | 1004.0 |
| 20260505202549 | 87 | 248 | 0.9 | 4.3 | 0.00 | 0.00 | 0.00 | 66 | 1003.9 |
| 20260505202358 | 87 | 250 | 0.9 | 3.5 | 0.00 | 0.00 | 0.00 | 66 | 1004.1 |
| 20260505201554 | 87 | 272 | 0.9 | 3.5 | 0.00 | 0.00 | 0.00 | 65 | 1004.0 |
| 20260505201045 | 87 | 249 | 0.9 | 2.6 | 0.00 | 0.00 | 0.00 | 66 | 1004.1 |
| 20260505200547 | 87 | 247 | 0.9 | 4.3 | 0.00 | 0.00 | 0.00 | 65 | 1004.1 |
| 20260505200046 | 87 | 269 | 0.9 | 4.3 | 0.00 | 0.00 | 0.00 | 66 | 1004.2 |
| 20260505195546 | 87 | 244 | 0.9 | 3.5 | 0.00 | 0.00 | 0.00 | 65 | 1004.1 |
| 20260505195356 | 87 | 270 | 0.9 | 3.5 | 0.00 | 0.00 | 0.00 | 67 | 1004.2 |
| 20260505194546 | 87 | 274 | 0.9 | 3.5 | 0.00 | 0.00 | 0.00 | 68 | 1004.1 |
| 20260505194049 | 86 | 214 | 0.9 | 5.2 | 0.00 | 0.00 | 0.00 | 68 | 1004.4 |
| 20260505193545 | 86 | 210 | 0.9 | 5.2 | 0.00 | 0.00 | 0.00 | 68 | 1004.2 |
| 20260505193045 | 86 | 266 | 0.9 | 5.2 | 0.00 | 0.00 | 0.00 | 69 | 1004.2 |
| 20260505192855 | 86 | 250 | 0.9 | 5.2 | 0.00 | 0.00 | 0.00 | 68 | 1004.3 |
| 20260505192045 | 85 | 176 | 0.9 | 3.5 | 0.00 | 0.00 | 0.00 | 69 | 1004.2 |
| 20260505191902 | 86 | 246 | 0.9 | 4.3 | 0.00 | 0.00 | 0.00 | 68 | 1004.3 |
| 20260505191407 | 86 | 243 | 0.9 | 6.1 | 0.00 | 0.00 | 0.00 | 68 | 1004.3 |
| 20260505190907 | 85 | 226 | 0.9 | 6.1 | 0.00 | 0.00 | 0.00 | 68 | 1004.4 |
| 20260505190045 | 85 | 238 | 0.9 | 3.5 | 0.00 | 0.00 | 0.00 | 69 | 1004.4 |
| 20260505185546 | 85 | 226 | 0.9 | 3.5 | 0.00 | 0.00 | 0.00 | 70 | 1004.4 |
| 20260505185045 | 84 | 265 | 0.9 | 4.3 | 0.00 | 0.00 | 0.00 | 70 | 1004.5 |
| 20260505184858 | 84 | 262 | 0.9 | 4.3 | 0.00 | 0.00 | 0.00 | 70 | 1004.5 |
| 20260505184042 | 84 | 238 | 0.9 | 2.6 | 0.00 | 0.00 | 0.00 | 69 | 1004.5 |
| 20260505183542 | 84 | 270 | 0.9 | 5.2 | 0.00 | 0.00 | 0.00 | 70 | 1004.5 |
| 20260505183041 | 84 | 245 | 0.9 | 5.2 | 0.00 | 0.00 | 0.00 | 70 | 1004.5 |
| 20260505182543 | 84 | 219 | 0.9 | 3.5 | 0.00 | 0.00 | 0.00 | 70 | 1004.5 |
| 20260505182041 | 84 | 274 | 0.9 | 3.5 | 0.00 | 0.00 | 0.00 | 69 | 1004.5 |
| 20260505181541 | 84 | 250 | 0.9 | 4.3 | 0.00 | 0.00 | 0.00 | 69 | 1004.6 |
| 20260505181042 | 84 | 271 | 0.9 | 5.2 | 0.00 | 0.00 | 0.00 | 69 | 1004.6 |
| 20260505180542 | 84 | 265 | 0.9 | 5.2 | 0.00 | 0.00 | 0.00 | 69 | 1004.6 |
| 20260505180039 | 84 | 155 | 1.7 | 7.8 | 0.00 | 0.00 | 0.00 | 69 | 1004.6 |
| 20260505175830 | 84 | 166 | 1.7 | 7.8 | 0.00 | 0.00 | 0.00 | 69 | 1004.6 |
| 20260505175336 | 84 | 242 | 0.9 | 5.2 | 0.00 | 0.00 | 0.00 | 69 | 1004.6 |
| 20260505174522 | 84 | 144 | 0.9 | 5.2 | 0.00 | 0.00 | 0.00 | 69 | 1004.7 |
| 20260505174024 | 84 | 256 | 0.9 | 5.2 | 0.00 | 0.00 | 0.00 | 70 | 1004.8 |
| 20260505173522 | 84 | 250 | 0.9 | 3.5 | 0.00 | 0.00 | 0.00 | 69 | 1004.8 |
| 20260505173022 | 84 | 226 | 0.9 | 3.5 | 0.00 | 0.00 | 0.00 | 69 | 1004.8 |
| 20260505172521 | 83 | 276 | 0.9 | 6.1 | 0.00 | 0.00 | 0.00 | 70 | 1004.8 |
| 20260505172021 | 83 | 274 | 0.9 | 6.1 | 0.00 | 0.00 | 0.00 | 71 | 1004.8 |
| 20260505171522 | 82 | 239 | 0.9 | 3.5 | 0.00 | 0.00 | 0.00 | 71 | 1004.9 |
| 20260505171017 | 82 | 245 | 1.7 | 7.0 | 0.00 | 0.00 | 0.00 | 71 | 1004.9 |
| 20260505170518 | 82 | 156 | 1.7 | 7.0 | 0.00 | 0.00 | 0.00 | 71 | 1004.9 |
| 20260505170118 | 82 | 222 | 1.7 | 4.3 | 0.00 | 0.00 | 0.00 | 71 | 1004.9 |
| 20260505165517 | 82 | 213 | 0.9 | 3.5 | 0.00 | 0.00 | 0.00 | 71 | 1004.9 |
| 20260505165331 | 82 | 246 | 0.9 | 4.3 | 0.00 | 0.00 | 0.00 | 72 | 1004.8 |
| 20260505164519 | 81 | 251 | 1.7 | 4.3 | 0.00 | 0.00 | 0.00 | 72 | 1004.8 |
| 20260505164018 | 82 | 243 | 0.9 | 3.5 | 0.00 | 0.00 | 0.00 | 71 | 1004.9 |
| 20260505163517 | 82 | 255 | 0.9 | 6.1 | 0.00 | 0.00 | 0.00 | 72 | 1004.8 |
| 20260505163014 | 82 | 255 | 0.9 | 6.1 | 0.00 | 0.00 | 0.00 | 71 | 1004.7 |
| 20260505162515 | 82 | 34 | 1.7 | 6.1 | 0.00 | 0.00 | 0.00 | 71 | 1004.8 |
| 20260505162016 | 82 | 210 | 1.7 | 6.1 | 0.00 | 0.00 | 0.00 | 70 | 1004.8 |
| 20260505161512 | 82 | 229 | 0.9 | 6.1 | 0.00 | 0.00 | 0.00 | 72 | 1004.6 |
| 20260505161013 | 81 | 277 | 0.9 | 6.1 | 0.00 | 0.00 | 0.00 | 73 | 1004.5 |
| 20260505160511 | 81 | 249 | 1.7 | 5.2 | 0.00 | 0.00 | 0.00 | 74 | 1004.5 |
| 20260505152459 | 79 | 179 | 1.7 | 6.1 | 0.00 | 0.00 | 0.00 | 76 | 1004.6 |
| 20260505152000 | 79 | 258 | 0.9 | 4.3 | 0.00 | 0.00 | 0.00 | 77 | 1004.7 |
| 20260505151458 | 78 | 231 | 0.9 | 3.5 | 0.00 | 0.00 | 0.00 | 78 | 1004.7 |
| 20260505150958 | 78 | 256 | 0.9 | 3.5 | 0.00 | 0.00 | 0.00 | 79 | 1004.7 |
| 20260505150455 | 77 | 288 | 0.9 | 3.5 | 0.00 | 0.00 | 0.00 | 79 | 1004.8 |
| 20260505140447 | 74 | 260 | 0.9 | 3.5 | 0.00 | 0.00 | 0.00 | 83 | 1004.9 |
| 20260505124920 | 72 | 263 | 0.0 | 2.6 | 0.00 | 0.00 | 0.00 | 85 | 1004.5 |
| 20260505124420 | 72 | 277 | 0.9 | 2.6 | 0.00 | 0.00 | 0.00 | 85 | 1004.5 |
| 20260505123922 | 72 | 294 | 0.9 | 3.5 | 0.00 | 0.00 | 0.00 | 85 | 1004.3 |
| 20260505123440 | 72 | 245 | 0.9 | 3.5 | 0.00 | 0.00 | 0.00 | 85 | 1004.1 |
| 20260505123229 | 72 | 96 | 0.9 | 3.5 | 0.00 | 0.00 | 0.00 | 85 | 1004.0 |
| 20260505122419 | 72 | 251 | 0.9 | 3.5 | 0.00 | 0.00 | 0.00 | 85 | 1004.0 |
| 20260505121920 | 72 | 277 | 0.9 | 3.5 | 0.00 | 0.00 | 0.00 | 86 | 1004.1 |
| 20260505121739 | 72 | 272 | 0.9 | 3.5 | 0.00 | 0.00 | 0.00 | 86 | 1004.2 |
| 20260505120914 | 72 | 264 | 0.9 | 3.5 | 0.00 | 0.00 | 0.00 | 86 | 1004.0 |
| 20260505120415 | 72 | 256 | 0.0 | 2.6 | 0.00 | 0.00 | 0.00 | 85 | 1004.0 |
| 20260505115915 | 72 | 266 | 0.9 | 6.1 | 0.00 | 0.00 | 0.00 | 85 | 1004.0 |
| 20260505115408 | 72 | 283 | 0.9 | 6.1 | 0.00 | 0.00 | 0.00 | 85 | 1004.0 |
| 20260505114904 | 71 | 257 | 0.9 | 4.3 | 0.00 | 0.00 | 0.00 | 85 | 1003.9 |
| 20260505114358 | 71 | 251 | 0.9 | 6.1 | 0.00 | 0.00 | 0.00 | 85 | 1004.0 |
| 20260505113850 | 71 | 255 | 0.9 | 6.1 | 0.00 | 0.00 | 0.00 | 85 | 1003.9 |
| 20260505113345 | 71 | 258 | 0.9 | 6.1 | 0.00 | 0.00 | 0.00 | 86 | 1003.8 |
| 20260505112839 | 71 | 287 | 0.9 | 6.1 | 0.00 | 0.00 | 0.00 | 86 | 1003.7 |
| 20260505112333 | 71 | 272 | 0.9 | 6.1 | 0.00 | 0.00 | 0.00 | 86 | 1003.8 |
| 20260505111827 | 71 | 248 | 0.9 | 2.6 | 0.00 | 0.00 | 0.00 | 86 | 1003.7 |
| 20260505111321 | 71 | 281 | 0.9 | 2.6 | 0.00 | 0.00 | 0.00 | 86 | 1003.6 |
| 20260505110815 | 71 | 243 | 0.9 | 5.2 | 0.00 | 0.00 | 0.00 | 86 | 1003.5 |
| 20260505110622 | 71 | 264 | 0.9 | 5.2 | 0.00 | 0.00 | 0.00 | 85 | 1003.4 |
| 20260505102222 | 72 | 273 | 0.9 | 5.2 | 0.00 | 0.00 | 0.00 | 85 | 1003.8 |
| 20260505101714 | 72 | 136 | 0.9 | 5.2 | 0.00 | 0.00 | 0.00 | 85 | 1003.8 |
| 20260505101530 | 72 | 205 | 0.9 | 4.3 | 0.00 | 0.00 | 0.00 | 85 | 1003.8 |
| 20260505101525 | 72 | 249 | 0.9 | 6.1 | 0.00 | 0.00 | 0.00 | 84 | 1003.8 |
| 20260505095653 | 72 | 271 | 0.9 | 6.1 | 0.00 | 0.00 | 0.00 | 84 | 1003.9 |
| 20260505095145 | 72 | 248 | 0.9 | 5.2 | 0.00 | 0.00 | 0.00 | 85 | 1003.9 |
| 20260505094639 | 72 | 268 | 0.9 | 5.2 | 0.00 | 0.00 | 0.00 | 85 | 1003.9 |
| 20260505094447 | 72 | 15 | 0.9 | 3.5 | 0.00 | 0.00 | 0.00 | 85 | 1004.0 |
| 20260505093627 | 72 | 265 | 0.9 | 2.6 | 0.00 | 0.00 | 0.00 | 85 | 1004.1 |
| 20260505093121 | 72 | 276 | 0.9 | 5.2 | 0.00 | 0.00 | 0.00 | 85 | 1004.1 |
| 20260505092615 | 72 | 250 | 0.9 | 5.2 | 0.00 | 0.00 | 0.00 | 85 | 1004.1 |
| 20260505092109 | 72 | 216 | 0.9 | 2.6 | 0.00 | 0.00 | 0.00 | 85 | 1004.1 |
| 20260505091605 | 72 | 264 | 0.9 | 3.5 | 0.00 | 0.00 | 0.00 | 85 | 1004.2 |
| 20260505091056 | 71 | 254 | 0.9 | 6.1 | 0.00 | 0.00 | 0.00 | 85 | 1004.3 |
| 20260505090552 | 71 | 252 | 0.9 | 7.8 | 0.00 | 0.00 | 0.00 | 85 | 1004.2 |
| 20260505090046 | 71 | 236 | 0.9 | 7.8 | 0.00 | 0.00 | 0.00 | 85 | 1004.0 |
| 20260505085542 | 71 | 254 | 1.7 | 4.3 | 0.00 | 0.00 | 0.00 | 85 | 1004.1 |
| 20260505085034 | 71 | 242 | 0.9 | 4.3 | 0.00 | 0.00 | 0.00 | 85 | 1004.1 |
| 20260505084528 | 71 | 250 | 0.9 | 4.3 | 0.00 | 0.00 | 0.00 | 85 | 1004.2 |
| 20260505084021 | 71 | 283 | 0.9 | 4.3 | 0.00 | 0.00 | 0.00 | 85 | 1004.1 |
| 20260505083514 | 71 | 230 | 0.9 | 4.3 | 0.00 | 0.00 | 0.00 | 85 | 1004.0 |
| 20260505083010 | 71 | 252 | 0.9 | 6.1 | 0.00 | 0.00 | 0.00 | 85 | 1004.1 |
| 20260505082504 | 71 | 245 | 0.9 | 6.1 | 0.00 | 0.00 | 0.00 | 85 | 1004.2 |
| 20260505081957 | 71 | 214 | 0.9 | 4.3 | 0.00 | 0.00 | 0.00 | 85 | 1004.2 |
| 20260505081802 | 71 | 249 | 0.9 | 4.3 | 0.00 | 0.00 | 0.00 | 84 | 1004.1 |
| 20260505080945 | 71 | 271 | 0.9 | 4.3 | 0.00 | 0.00 | 0.00 | 84 | 1004.2 |
| 20260505080441 | 71 | 254 | 0.9 | 4.3 | 0.00 | 0.00 | 0.00 | 84 | 1004.2 |
| 20260505075933 | 72 | 292 | 0.9 | 4.3 | 0.00 | 0.00 | 0.00 | 84 | 1004.3 |
| 20260505075427 | 72 | 226 | 0.9 | 4.3 | 0.00 | 0.00 | 0.00 | 84 | 1004.4 |
| 20260505074921 | 72 | 238 | 0.9 | 6.1 | 0.00 | 0.00 | 0.00 | 83 | 1004.4 |
| 20260505074414 | 72 | 292 | 0.9 | 6.1 | 0.00 | 0.00 | 0.00 | 83 | 1004.6 |
| 20260505073919 | 72 | 265 | 0.9 | 7.0 | 0.00 | 0.00 | 0.00 | 83 | 1004.7 |
| 20260505073413 | 72 | 239 | 0.9 | 7.0 | 0.00 | 0.00 | 0.00 | 83 | 1004.9 |
| 20260505072913 | 72 | 268 | 1.7 | 8.7 | 0.00 | 0.00 | 0.00 | 83 | 1004.9 |
| 20260505072410 | 72 | 268 | 1.7 | 8.7 | 0.00 | 0.00 | 0.00 | 82 | 1005.0 |
| 20260505071911 | 72 | 301 | 0.9 | 6.1 | 0.00 | 0.00 | 0.00 | 82 | 1005.1 |
| 20260505071411 | 72 | 271 | 1.7 | 7.0 | 0.00 | 0.00 | 0.00 | 82 | 1005.0 |
| 20260505070913 | 72 | 272 | 0.9 | 7.0 | 0.00 | 0.00 | 0.00 | 82 | 1005.1 |
| 20260505070410 | 72 | 268 | 0.9 | 6.1 | 0.00 | 0.00 | 0.00 | 82 | 1005.1 |
| 20260505065911 | 72 | 157 | 0.9 | 4.3 | 0.00 | 0.00 | 0.00 | 82 | 1005.1 |
| 20260505065409 | 72 | 227 | 0.9 | 4.3 | 0.00 | 0.00 | 0.00 | 82 | 1005.2 |
| 20260505064908 | 72 | 257 | 0.9 | 7.0 | 0.00 | 0.00 | 0.00 | 81 | 1005.3 |
| 20260505064408 | 73 | 244 | 0.9 | 7.0 | 0.00 | 0.00 | 0.00 | 81 | 1005.3 |
| 20260505064222 | 73 | 245 | 0.9 | 8.7 | 0.00 | 0.00 | 0.00 | 81 | 1005.4 |
| 20260505063407 | 73 | 243 | 0.9 | 8.7 | 0.00 | 0.00 | 0.00 | 81 | 1005.4 |
| 20260505063227 | 72 | 278 | 0.9 | 5.2 | 0.00 | 0.00 | 0.00 | 81 | 1005.3 |
| 20260505062407 | 73 | 158 | 0.9 | 4.3 | 0.00 | 0.00 | 0.00 | 81 | 1005.3 |
| 20260505061906 | 72 | 281 | 0.9 | 5.2 | 0.00 | 0.00 | 0.00 | 80 | 1005.3 |
| 20260505061401 | 72 | 268 | 0.9 | 5.2 | 0.00 | 0.00 | 0.00 | 80 | 1005.3 |
| 20260505060855 | 72 | 282 | 0.9 | 5.2 | 0.00 | 0.00 | 0.00 | 80 | 1005.3 |
| 20260505060349 | 73 | 140 | 0.9 | 5.2 | 0.00 | 0.00 | 0.00 | 80 | 1005.4 |
| 20260505060159 | 73 | 130 | 0.9 | 6.1 | 0.00 | 0.00 | 0.00 | 80 | 1005.5 |
| 20260505055650 | 73 | 343 | 0.9 | 6.1 | 0.00 | 0.00 | 0.00 | 80 | 1005.5 |